[[{"header":{"parameterUnit":"m.s-1","parameterCategory":1,"la1":30.2991,"la2":30.254,"lo1":-89.0895,"lo2":-89.0444,"dy":0.0017,"dx":0.0017,"nx":28,"ny":28,"refTime":"2023-07-28T03:00:00:Z","depth":0,"parameterNumber":2,"parameterNumberName":"U-component_of_WINDS"},"data":[0,0,0,0,0,0,0,0,0,0,0,0,0,0,0,0,0,0,0,0,0,0,0,0,0,0,0,0,0,0,0,0,0,0,0,0,0,0,0,0,0,0,0,0,0,0,0,0,0,0,0,0,0,0,0,0,0,0,0.5803,0.5805,0,0.5926,0.5927,0.5928,0.5996,0.5996,0.5996,0.5996,0.612,0.6123,0.6126,0,0,0,0,0,0,0,0,0,0,0,0,0,0.5626,0.5629,0.5803,0.5805,0.5806,0.5925,0.5927,0.5929,0.5996,0.5996,0.5996,0.5996,0.6119,0.6123,0.6126,0,0,0,0,0,0,0,0,0,0,0,0,0,0.5721,0.563,0.5803,0.5854,0.586,0.5925,0.5927,0.5929,0.5996,0.5996,0.5996,0.5996,0.6118,0.6122,0.6127,0.615,0,0,0.6141,0.6143,0,0,0,0,0,0,0,0,0.5715,0.5727,0.5845,0.5851,0.5857,0.5946,0.591,0.6003,0.5995,0.5944,0.5996,0.5997,0.6062,0.6071,0.6093,0.6156,0.6161,0.6142,0.6144,0.6146,0.6148,0,0,0,0,0,0,0,0.5709,0.5722,0.5852,0.5847,0.5854,0.587,0.5884,0.5928,0.6,0.5948,0.5954,0.5967,0.6065,0.6089,0.6097,0.6163,0.6141,0.6146,0.6149,0.615,0.6251,0.6251,0,0,0,0,0,0,0.5694,0.5716,0.5848,0.5855,0.5786,0.5873,0.5889,0.5917,0.5999,0.6012,0.5967,0.597,0.608,0.6091,0.6101,0.6134,0.6146,0.6151,0.6154,0.6251,0.6251,0.6251,0,0,0,0,0,0,0.569,0.5705,0.5843,0.5787,0.5806,0.5876,0.5907,0.5919,0.5943,0.6013,0.6026,0.5978,0.6081,0.6095,0.6138,0.6139,0.6153,0.6157,0.6251,0.6251,0.6251,0.6199,0,0,0,0,0,0,0.5685,0.5703,0.5713,0.5787,0.5809,0.5877,0.5907,0.5921,0.5951,0.5956,0.6027,0.6039,0.6082,0.613,0.6142,0.6146,0.6161,0.6251,0.6251,0.6251,0.6201,0.6197,0.6194,0,0,0,0,0,0.5678,0.5694,0.5713,0.5729,0.5823,0.5877,0.589,0.594,0.5951,0.5961,0.6006,0.6037,0.6137,0.6134,0.6148,0.6153,0.6252,0.6251,0.6251,0.6202,0.6198,0.6194,0,0,0,0,0,0,0.5617,0.5704,0.5727,0.5767,0.5814,0.5889,0.5903,0.5933,0.5978,0.5981,0.604,0.6056,0.6093,0.6127,0.6123,0.618,0.6198,0.62,0.6156,0.6152,0.6148,0.6139,0.6165,0,0,0,0,0,0.5609,0.5646,0.572,0.5748,0.5771,0.5833,0.5858,0.5893,0.5944,0.5964,0.6012,0.606,0.6103,0.6129,0.6172,0.6206,0.6223,0.6217,0.6213,0.621,0.6211,0.6231,0.6229,0.625,0.625,0.625,0,0,0.5591,0.5643,0.5663,0.5737,0.5778,0.5815,0.5849,0.5887,0.5915,0.597,0.6013,0.605,0.6108,0.6146,0.6166,0.6176,0.6209,0.6209,0.6206,0.621,0.6231,0.6229,0.6227,0.625,0.625,0.625,0,0,0.5578,0.5621,0.5649,0.569,0.5751,0.5792,0.5798,0.5868,0.5895,0.594,0.5982,0.6016,0.6088,0.6127,0.6156,0.6157,0.6187,0.617,0.6151,0.617,0.6168,0.6167,0.6167,0.6166,0.6171,0.6171,0.6171,0,0.5548,0.5606,0.566,0.5695,0.5726,0.5778,0.5807,0.5843,0.5915,0.5935,0.5946,0.6037,0.6079,0.6127,0.6128,0.615,0.6159,0.6162,0.6164,0.6164,0.6163,0.6164,0.6164,0.6168,0.6169,0.6169,0.6169,0,0.5566,0.5606,0.5621,0.5689,0.5722,0.5754,0.5812,0.5838,0.587,0.5909,0.5954,0.6007,0.6061,0.6075,0.6106,0.6128,0.6132,0.6153,0.6172,0.6158,0.6159,0.616,0.6165,0.6166,0.6166,0.6167,0,0,0.5518,0.5616,0.562,0.5652,0.5723,0.5755,0.5788,0.5842,0.5863,0.5911,0.5941,0.6,0.602,0.6053,0.6089,0.6106,0.6103,0.6125,0.6127,0.6118,0.6129,0.6112,0.6112,0.6123,0.6123,0.6123,0.6124,0,0.5514,0.5578,0.5627,0.5672,0.5709,0.5759,0.5788,0.5835,0.5873,0.5909,0.5951,0.5992,0.6015,0.6035,0.6054,0.6099,0.6105,0.61,0.615,0.6151,0.6134,0.6113,0.6096,0.6094,0.6125,0.6125,0.6125,0,0.5519,0.5565,0.5613,0.5681,0.5698,0.5724,0.5777,0.5811,0.5865,0.5891,0.5928,0.5965,0.6003,0.6018,0.607,0.6065,0.6089,0.6114,0.6115,0.6121,0.6137,0.6118,0.6094,0.6093,0.6127,0.6127,0.6127,0,0.5478,0.5552,0.5591,0.5616,0.5696,0.5713,0.5747,0.5801,0.583,0.5876,0.5895,0.5945,0.5972,0.6009,0.6059,0.6066,0.6105,0.6125,0.6128,0.6127,0.6134,0.6132,0.6113,0.615,0.615,0.615,0.615,0,0.5468,0.5496,0.5574,0.5597,0.5629,0.5685,0.5715,0.5754,0.5801,0.5833,0.5879,0.5907,0.5971,0.6007,0.6046,0.6083,0.6095,0.6117,0.6127,0.6113,0.611,0.6128,0.6129,0.615,0.615,0.615,0.615,0,0.5428,0.5481,0.5526,0.5598,0.5617,0.5637,0.5699,0.5723,0.5764,0.5803,0.5815,0.5879,0.5924,0.5977,0.6039,0.6065,0.6098,0.6114,0.608,0.6086,0.6085,0.6084,0.6076,0.6078,0.6114,0.6113,0.6113,0,0.5418,0.544,0.5515,0.5539,0.5572,0.5611,0.5641,0.5697,0.5726,0.5789,0.5806,0.5854,0.5896,0.5965,0.6016,0.6064,0.608,0.6074,0.6088,0.6072,0.6079,0.6077,0.6079,0.607,0.607,0.6069,0.6069,0,0.5394,0.5419,0.5461,0.5512,0.5546,0.5589,0.5633,0.5651,0.5716,0.5746,0.5792,0.5825,0.5888,0.5936,0.599,0.6024,0.6057,0.6064,0.6067,0.6052,0.6032,0.6042,0.607,0.6064,0.6064,0.6065,0.6065,0.6065,0.5368,0.539,0.5446,0.5491,0.553,0.5571,0.5597,0.5641,0.5681,0.5737,0.5768,0.5814,0.5867,0.5943,0.5977,0.6013,0.6024,0.6029,0.603,0.603,0.6025,0.6027,0.6023,0.6023,0.6023,0.6024,0.6024,0,0.5346,0.5385,0.5426,0.5486,0.5521,0.555,0.5601,0.5628,0.5667,0.5714,0.5755,0.5808,0.5854,0.5909,0.5959,0.5977,0.5993,0.5988,0.5987,0.5994,0.6013,0.6005,0.5974,0.5974,0.5974,0.5974,0.5974,0.5974,0.5339,0.5378,0.541,0.5468,0.5507,0.5552,0.5578,0.5616,0.5653,0.5711,0.575,0.5785,0.5836,0.5889,0.5933,0.5948,0.5964,0.5954,0.5973,0.5989,0.5993,0.5997,0.599,0.5957,0.5957,0.5952,0.5952,0.5952]},{"header":{"parameterUnit":"m.s-1","parameterCategory":1,"la1":30.2991,"la2":30.254,"lo1":-89.0895,"lo2":-89.0444,"dy":0.0017,"dx":0.0017,"nx":28,"ny":28,"refTime":"2023-07-28T03:00:00:Z","depth":0,"parameterNumber":3,"parameterNumberName":"V-component_of_WINDS"},"data":[0,0,0,0,0,0,0,0,0,0,0,0,0,0,0,0,0,0,0,0,0,0,0,0,0,0,0,0,0,0,0,0,0,0,0,0,0,0,0,0,0,0,0,0,0,0,0,0,0,0,0,0,0,0,0,0,0,0,2.0413,2.0412,0,2.0345,2.0344,2.0344,2.0288,2.0288,2.0287,2.0287,2.0213,2.0211,2.021,0,0,0,0,0,0,0,0,0,0,0,0,0,2.049,2.0489,2.0413,2.0412,2.0411,2.0345,2.0344,2.0343,2.0288,2.0288,2.0287,2.0286,2.0213,2.0212,2.021,0,0,0,0,0,0,0,0,0,0,0,0,0,2.0443,2.0489,2.0413,2.0376,2.0372,2.0345,2.0344,2.0343,2.0289,2.0288,2.0287,2.0286,2.0214,2.0212,2.021,2.0213,0,0,2.0203,2.0202,0,0,0,0,0,0,0,0,2.0446,2.044,2.0382,2.0378,2.0374,2.0324,2.0344,2.0299,2.0289,2.032,2.0287,2.0286,2.025,2.0245,2.0234,2.021,2.0206,2.0203,2.0201,2.0201,2.02,0,0,0,0,0,0,0,2.0449,2.0443,2.0386,2.0381,2.0376,2.0361,2.0354,2.0336,2.0291,2.0317,2.0313,2.0306,2.0248,2.0236,2.0232,2.0205,2.0203,2.0201,2.02,2.0199,2.0179,2.0179,0,0,0,0,0,0,2.0459,2.0446,2.0388,2.0384,2.0409,2.0361,2.0352,2.0341,2.0291,2.0282,2.0307,2.0304,2.024,2.0235,2.0229,2.0229,2.0201,2.0199,2.0197,2.0178,2.0179,2.018,0,0,0,0,0,0,2.0461,2.0454,2.0391,2.0414,2.0405,2.036,2.0348,2.034,2.0329,2.0283,2.0274,2.0304,2.024,2.0232,2.0217,2.0225,2.0198,2.0196,2.0177,2.0178,2.0179,2.0229,0,0,0,0,0,0,2.0463,2.0455,2.0457,2.0414,2.0404,2.0382,2.0349,2.0339,2.0326,2.0321,2.0278,2.0269,2.0238,2.0221,2.0215,2.0222,2.0194,2.0176,2.0178,2.0179,2.0226,2.0231,2.0236,0,0,0,0,0,2.0466,2.0473,2.0458,2.0451,2.0405,2.0382,2.0376,2.0341,2.0327,2.0327,2.0298,2.0271,2.0226,2.022,2.0213,2.0219,2.0175,2.0177,2.0179,2.0224,2.023,2.0236,0,0,0,0,0,0,2.0516,2.0467,2.0449,2.0443,2.0417,2.0373,2.0373,2.035,2.0327,2.0323,2.028,2.027,2.026,2.0238,2.0232,2.0219,2.0197,2.0197,2.0234,2.0239,2.0244,2.0249,2.0192,0,0,0,0,0,2.0527,2.0514,2.0471,2.0469,2.0458,2.0418,2.0407,2.0382,2.0354,2.0342,2.0311,2.0284,2.0263,2.025,2.0229,2.0223,2.0212,2.0224,2.0229,2.0233,2.0233,2.0227,2.0232,2.0185,2.0185,2.0185,0,0,2.0548,2.052,2.0514,2.0479,2.0456,2.0442,2.0409,2.0396,2.0384,2.0339,2.0324,2.0301,2.0266,2.0256,2.025,2.0237,2.0244,2.0235,2.0239,2.0237,2.0229,2.0234,2.0238,2.0187,2.0186,2.0186,0,0,2.0579,2.0557,2.0553,2.0531,2.0498,2.0472,2.0471,2.0431,2.0414,2.0398,2.0364,2.0349,2.0315,2.0291,2.0275,2.0298,2.0271,2.0292,2.0317,2.0311,2.0315,2.0318,2.0324,2.0328,2.0293,2.0293,2.0293,0,2.0609,2.0588,2.0553,2.0542,2.0527,2.0488,2.0482,2.0462,2.0423,2.0413,2.04,2.0356,2.0331,2.0314,2.0319,2.0308,2.0304,2.0296,2.0318,2.032,2.0322,2.0328,2.0331,2.0295,2.0295,2.0295,2.0295,0,2.0626,2.0612,2.0612,2.0577,2.0562,2.0554,2.0516,2.0505,2.0482,2.0457,2.044,2.0408,2.0379,2.0373,2.035,2.0353,2.0346,2.0326,2.0303,2.033,2.0334,2.0337,2.0299,2.0298,2.0297,2.0297,0,0,2.0686,2.0632,2.0633,2.0616,2.0577,2.0564,2.0554,2.0527,2.0517,2.0492,2.048,2.0453,2.0434,2.0416,2.039,2.0385,2.0403,2.0366,2.0364,2.0372,2.0402,2.0416,2.0419,2.0387,2.0387,2.0387,2.0404,0,2.0709,2.069,2.0658,2.0647,2.0633,2.0596,2.0586,2.056,2.0536,2.0519,2.0492,2.0472,2.045,2.0438,2.0433,2.0403,2.0408,2.0401,2.0373,2.0373,2.0382,2.0422,2.0437,2.0455,2.0406,2.0406,2.0407,0,2.0734,2.0712,2.0701,2.0662,2.0655,2.0647,2.0619,2.0605,2.0574,2.0556,2.0536,2.0508,2.0493,2.0474,2.0451,2.0447,2.0434,2.0418,2.0417,2.0412,2.039,2.0416,2.046,2.0462,2.0409,2.0409,2.0409,0,2.0777,2.0744,2.0733,2.072,2.0675,2.0671,2.0651,2.062,2.0606,2.0581,2.0571,2.0545,2.053,2.0509,2.0474,2.0463,2.0455,2.0433,2.0439,2.0439,2.0437,2.0437,2.0478,2.0432,2.0432,2.0432,2.0432,0,2.0806,2.08,2.0752,2.0745,2.0737,2.07,2.0692,2.0669,2.0642,2.0628,2.0594,2.0582,2.0538,2.052,2.0492,2.0477,2.0471,2.0455,2.0447,2.0457,2.0459,2.0447,2.0444,2.0432,2.0432,2.0432,2.0432,0,2.0851,2.0819,2.0804,2.0764,2.0753,2.0749,2.0713,2.0704,2.0678,2.0662,2.0655,2.0615,2.0592,2.0555,2.0521,2.0503,2.0492,2.048,2.0503,2.0498,2.0505,2.0504,2.0537,2.0539,2.0494,2.0495,2.0495,0,2.0871,2.0866,2.0825,2.0814,2.0797,2.078,2.0765,2.0729,2.0715,2.0679,2.0674,2.0649,2.0627,2.0592,2.0558,2.0531,2.0518,2.0531,2.0513,2.0523,2.0516,2.0516,2.0514,2.0535,2.0535,2.0536,2.0536,0,2.0909,2.0893,2.0875,2.085,2.0834,2.0813,2.0789,2.0782,2.074,2.0726,2.0703,2.0686,2.0652,2.0626,2.0595,2.0573,2.0547,2.0543,2.0542,2.0551,2.0564,2.0556,2.0512,2.0542,2.0541,2.0541,2.054,2.054,2.0941,2.0934,2.0904,2.0884,2.0863,2.0842,2.0832,2.0805,2.0786,2.0756,2.0736,2.0714,2.0682,2.0638,2.0617,2.0598,2.0587,2.0587,2.0586,2.0586,2.0589,2.0569,2.0593,2.0592,2.0592,2.0592,2.0592,0,2.0976,2.0955,2.0937,2.0906,2.089,2.0869,2.0842,2.0829,2.0811,2.0785,2.0764,2.0737,2.0712,2.0677,2.0649,2.064,2.0627,2.0634,2.0633,2.0628,2.0602,2.0604,2.0645,2.0645,2.0645,2.0645,2.0645,2.0645,2.0992,2.0979,2.096,2.0936,2.0914,2.0894,2.088,2.086,2.0839,2.081,2.079,2.0768,2.0737,2.0707,2.0683,2.0673,2.0664,2.0674,2.066,2.0635,2.063,2.0626,2.0628,2.0672,2.0672,2.0688,2.0688,2.0688]}]]